[Date Prev][Date Next][Thread Prev][Thread Next] - [Date Index][Thread Index][Author Index]

2 Line ISS Keps 10-14



ISS
1 25544U 98067A   04288.12589120  .00016898  00000-0  14768-3 0  9070
2 25544  51.6355  78.8391 0009173 223.2847 125.6704 15.69024665336990
----
Via the sarex mailing list at AMSAT.ORG courtesy of AMSAT-NA.
To unsubscribe, send "unsubscribe sarex" to Majordomo@amsat.org



AMSAT Top AMSAT Home